Group_ship,Cruise,JD_GMT,Date_DDMMYYYY,TIME_HH:MM:SS,Lat_dec_degree,Long_dec_degree,xCO2eq_ppm,xCO2a_ppm,Pres_Equi_hPa,Pres_sealevel_hPa,EqTemp_C,SST(TSG)_C,Sal(TSG)_Permil,Water_flow_l/min,Gasflow_IR_ml/min,Temp_IR_C,Pres_IR_hPa,Ship_heading_true_degree,Ship_speed_knot,Wind_dir_rel_degree,Wind_speed_rel_m/s,fCO2W@SST_uatm,Qcflag_water,fCO2a_uatm,Qcflag_air,dfCO2_uatm,Fluoro_ug/l,Wind_speed_true_m/s,Wind_dir_true_degree,Air_temp_C,Oxygen
AOML_Explorer,Ex0532E,220.027,8082005,0:39:31,26.21,-79.107,413.13,-9,1015.99,1013.21,29.8,30.33,36.075,1.08,87.75,31.62,1015.99,88.2,21.7,350,10.81,403.7,2,-9,9,-9,0.05,2.02,342.88,29.08,-9
AOML_Explorer,Ex0532E,220.029,8082005,0:42:04,26.211,-79.09,411.03,-9,1015.88,1013.08,29.77,30.35,36.074,1.11,87.41,31.62,1015.88,88.6,21.8,357,10.29,402.16,2,-9,9,-9,0.06,1.14,302.64,29.07,-9
AOML_Explorer,Ex0532E,220.031,8082005,0:44:37,26.211,-79.073,409.78,-9,1015.9,1013.2,29.82,30.49,36.066,1.08,87.65,31.62,1015.9,88.8,21.9,351,11.32,402.26,2,-9,9,-9,0.08,1.93,355.44,29.08,-9
AOML_Explorer,Ex0532E,220.033,8082005,0:47:10,26.212,-79.055,409.36,-9,1015.95,1013.07,29.86,30.57,36.131,1.09,87.54,31.62,1015.95,89.1,21.9,347,11.32,402.37,2,-9,9,-9,0.07,2.73,353.23,29.11,-9
AOML_Explorer,Ex0532E,220.035,8082005,0:49:43,26.212,-79.038,409.48,-9,1015.95,1013.11,29.96,30.7,36.155,1.12,87.7,31.61,1015.95,89,22.1,351,11.84,402.86,2,-9,9,-9,0.07,2.07,6.88,29.17,-9
AOML_Explorer,Ex0532E,220.036,8082005,0:52:16,26.212,-79.021,410.39,-9,1016.02,1013.17,30.08,30.51,36.161,1.13,87.53,31.61,1016.02,89.3,22.1,351,11.84,399.29,2,-9,9,-9,0.08,2.11,6.86,29.19,-9
AOML_Explorer,Ex0532E,220.038,8082005,0:54:49,26.212,-79.003,411.98,-9,1016.06,1013.24,30.08,30.48,36.193,1.11,87.85,31.61,1016.06,88.7,22.2,349,11.84,400.51,2,-9,9,-9,0.08,2.39,2.73,29.19,-9
AOML_Explorer,Ex0532E,220.04,8082005,0:57:22,26.213,-78.986,412.73,-9,1016.13,1013.28,29.95,30.5,36.182,1.13,87.63,31.6,1016.13,88.9,22.4,353,11.84,403.56,2,-9,9,-9,0.08,1.58,6.3,29.16,-9
AOML_Explorer,Ex0532E,220.055,8082005,1:19:07,26.198,-78.838,411.75,-9,1016.3,1013.41,30.06,30.66,36.01,1.37,88.18,31.65,1016.3,106.5,22.5,348,12.35,403.08,2,-9,9,-9,0.06,2.87,24.17,29.27,-9
AOML_Explorer,Ex0532E,220.057,8082005,1:21:40,26.193,-78.821,412.6,-9,1016.41,1013.36,30.04,30.54,36.079,1.39,87.55,31.65,1016.41,107.2,22.6,349,13.38,402.66,2,-9,9,-9,0.06,3.32,42.33,29.27,-9
AOML_Explorer,Ex0532E,220.058,8082005,1:24:13,26.189,-78.804,412.54,-9,1016.36,1013.39,30.04,30.35,36.094,1.41,87.68,31.66,1016.36,106.2,22.6,350,13.38,399.91,2,-9,9,-9,0.06,3.16,43.63,29.3,-9
AOML_Explorer,Ex0532E,220.06,8082005,1:26:46,26.184,-78.787,412.01,-9,1016.4,1013.5,29.99,30.41,36.005,1.38,87.82,31.65,1016.4,105.9,22.6,347,13.38,401.02,2,-9,9,-9,0.06,3.73,35.99,29.33,-9
AOML_Explorer,Ex0532E,220.062,8082005,1:29:19,26.18,-78.77,411.14,-9,1016.46,1013.5,29.88,30.47,36.049,1.39,87.95,31.66,1016.46,106.3,22.7,350,13.38,402.67,2,-9,9,-9,0.07,3.19,42.08,29.32,-9
AOML_Explorer,Ex0532E,220.064,8082005,1:31:52,26.175,-78.753,409.98,-9,1016.54,1013.51,29.93,30.3,36.08,1.41,88.04,31.65,1016.54,106.3,22.8,350,13.38,398.53,2,-9,9,-9,0.08,3.25,40.09,29.33,-9
AOML_Explorer,Ex0532E,220.066,8082005,1:34:25,26.17,-78.736,408.88,-9,1016.43,1013.46,29.95,30.56,36.074,1.4,87.79,31.61,1016.43,106.3,22.8,354,13.38,400.65,2,-9,9,-9,0.08,2.58,51.27,29.37,-9
AOML_Explorer,Ex0532E,220.067,8082005,1:36:58,26.166,-78.718,408.74,-9,1016.37,1013.46,30,30.55,36.113,1.4,88.04,31.6,1016.37,106.4,22.8,354,14.41,399.61,2,-9,9,-9,0.08,3.41,63.14,29.35,-9
AOML_Explorer,Ex0532E,220.069,8082005,1:39:31,26.161,-78.701,409.23,-9,1016.45,1013.38,30.01,30.61,36.094,1.38,87.66,31.59,1016.45,106.3,22.9,355,14.93,400.78,2,-9,9,-9,0.08,3.65,71.44,29.35,-9
AOML_Explorer,Ex0532E,220.071,8082005,1:42:04,26.157,-78.684,409.79,-9,1016.54,1013.54,30.05,30.5,36.101,1.38,87.58,31.59,1016.54,106.4,23,357,13.9,399.13,2,-9,9,-9,0.08,2.51,68.01,29.36,-9
AOML_Explorer,Ex0532E,220.073,8082005,1:44:37,26.152,-78.667,410.35,-9,1016.53,1013.64,30,30.55,36.105,1.41,87.32,31.59,1016.53,106.3,23.1,354,13.9,401.24,2,-9,9,-9,0.07,2.84,55.03,29.32,-9
AOML_Explorer,Ex0532E,220.074,8082005,1:47:10,26.147,-78.649,410.77,-9,1016.47,1013.48,29.98,30.5,36.163,1.37,87.58,31.59,1016.47,106.3,23.3,353,14.41,401.17,2,-9,9,-9,0.06,3.39,56.39,29.32,-9
AOML_Explorer,Ex0532E,220.078,8082005,1:52:16,26.138,-78.614,412.25,-9,1016.51,1013.34,29.92,30.29,36.194,1.4,87.77,31.6,1016.51,106.3,23.4,353,15.44,400.63,2,-9,9,-9,0.1,4.04,68.7,29.22,-9
AOML_Explorer,Ex0532E,220.08,8082005,1:54:49,26.133,-78.596,411.48,-9,1016.43,1013.36,29.85,30.19,36.187,1.39,87.69,31.61,1016.43,106.3,23.3,348,15.44,399.59,2,-9,9,-9,0.1,4.66,57.02,29.15,-9
AOML_Explorer,Ex0532E,220.082,8082005,1:57:22,26.129,-78.579,411.63,-9,1016.46,1013.31,29.78,30.15,36.151,1.4,88.02,31.62,1016.46,106.2,23.3,353,15.44,400.26,2,-9,9,-9,0.09,3.94,72.94,29.15,-9
AOML_Explorer,Ex0532E,220.097,8082005,2:19:07,26.088,-78.43,410.9,-9,1016.95,1013.86,29.9,30.37,36.216,1.41,87.96,31.72,1016.95,107.3,23.5,349,14.93,400.93,2,-9,9,-9,0.08,3.8,60.88,29.4,-9
AOML_Explorer,Ex0532E,220.098,8082005,2:21:40,26.083,-78.413,411.91,-9,1016.92,1014.02,29.91,30.3,36.212,1.4,87.84,31.72,1016.92,107,23.5,347,14.41,400.79,2,-9,9,-9,0.08,3.69,49.42,29.4,-9
AOML_Explorer,Ex0532E,220.1,8082005,2:24:13,26.078,-78.395,412.35,-9,1016.96,1014.02,29.86,30.38,36.218,1.44,87.74,31.73,1016.96,107.4,23.4,351,13.9,403.18,2,-9,9,-9,0.08,2.63,57.8,29.41,-9
AOML_Explorer,Ex0532E,220.102,8082005,2:26:46,26.073,-78.378,412.2,-9,1017.08,1014,29.83,30.24,36.23,1.44,87.82,31.74,1017.08,107.2,23.3,345,14.41,401.52,2,-9,9,-9,0.08,4.09,45.88,29.41,-9
AOML_Explorer,Ex0532E,220.104,8082005,2:29:19,26.068,-78.36,411.7,-9,1017.07,1014.06,29.89,30.3,36.169,1.43,87.88,31.74,1017.07,107.3,23.3,349,13.9,401.07,2,-9,9,-9,0.08,3.02,51.05,29.4,-9
AOML_Explorer,Ex0532E,220.105,8082005,2:31:52,26.063,-78.343,411.6,-9,1017.08,1014.1,29.75,30.4,36.201,1.44,87.85,31.74,1017.08,107.2,23.1,351,13.38,404.34,2,-9,9,-9,0.09,2.37,51.75,29.42,-9
AOML_Explorer,Ex0532E,220.107,8082005,2:34:25,26.058,-78.325,410.95,-9,1017.14,1014.2,29.83,30.43,36.175,1.43,87.63,31.74,1017.14,107.2,23,355,12.87,402.98,2,-9,9,-9,0.08,1.41,61.91,29.43,-9
AOML_Explorer,Ex0532E,220.109,8082005,2:36:58,26.053,-78.308,411.11,-9,1017.08,1014.15,29.86,30.57,36.17,1.44,87.61,31.74,1017.08,107.3,23.2,354,12.87,404.59,2,-9,9,-9,0.07,1.58,50.23,29.44,-9
AOML_Explorer,Ex0532E,220.111,8082005,2:39:31,26.049,-78.291,411.48,-9,1017.02,1014.23,29.94,30.6,36.223,1.44,87.74,31.74,1017.02,107.2,23,350,13.38,404.08,2,-9,9,-9,0.19,2.64,47.9,29.42,-9
AOML_Explorer,Ex0532E,220.113,8082005,2:42:04,26.044,-78.274,412.46,-9,1017.04,1014.12,30.07,30.61,36.193,1.45,87.6,31.74,1017.04,107.1,23,353,12.87,403.36,2,-9,9,-9,0.08,1.8,48.56,29.38,-9
AOML_Explorer,Ex0532E,220.114,8082005,2:44:37,26.039,-78.256,413.79,-9,1017.02,1014.06,30.08,30.71,36.151,1.43,87.16,31.74,1017.02,107.1,22.8,353,12.87,405.9,2,-9,9,-9,0.08,1.84,49.45,29.44,-9
AOML_Explorer,Ex0532E,220.116,8082005,2:47:10,26.034,-78.239,414.62,-9,1017.07,1014.18,30.06,30.57,36.21,1.45,87.47,31.74,1017.07,107.4,22.8,353,12.87,405.05,2,-9,9,-9,0.08,1.88,50.63,29.48,-9
AOML_Explorer,Ex0532E,220.118,8082005,2:49:43,26.029,-78.222,414.74,-9,1017.15,1014.24,30.13,30.6,36.178,1.47,87.33,31.74,1017.15,107.2,22.8,358,13.38,404.54,2,-9,9,-9,0.07,1.7,92.21,29.43,-9
AOML_Explorer,Ex0532E,220.12,8082005,2:52:16,26.025,-78.205,415.01,-9,1017.19,1014.26,30.09,30.48,36.141,1.44,87.36,31.74,1017.19,107.2,22.8,354,13.9,403.76,2,-9,9,-9,0.07,2.48,72.3,29.43,-9
AOML_Explorer,Ex0532E,220.121,8082005,2:54:49,26.02,-78.188,414.76,-9,1017.16,1014.09,30.02,30.53,36.165,1.46,87.42,31.74,1017.16,107.3,22.8,354,13.9,405.16,2,-9,9,-9,0.08,2.55,72.06,29.4,-9
AOML_Explorer,Ex0532E,220.123,8082005,2:57:22,26.015,-78.171,413.72,-9,1017.1,1014.28,30,30.61,36.137,1.46,87.46,31.75,1017.1,107.6,22.7,358,14.41,405.6,2,-9,9,-9,0.07,2.76,98.41,29.4,-9
AOML_Explorer,Ex0532E,220.125,8082005,2:59:55,26.009,-78.154,413.15,-9,1017.04,1014.16,30.02,30.65,36.165,1.43,87.37,31.75,1017.04,113.6,22.6,357,14.93,405.37,2,-9,9,-9,0.08,3.36,100.73,29.46,-9
AOML_Explorer,Ex0532E,220.138,8082005,3:19:07,25.966,-78.03,412.76,-9,1016.9,1013.87,29.97,30.44,36.131,1.46,88.22,31.82,1016.9,108.9,23,354,14.41,402.66,2,-9,9,-9,0.09,2.85,80.42,29.37,-9
AOML_Explorer,Ex0532E,220.14,8082005,3:21:40,25.961,-78.013,412.92,-9,1016.78,1013.87,29.84,30.49,36.129,1.46,88.16,31.82,1016.78,109.1,22.9,1,13.9,405.32,2,-9,9,-9,0.1,2.13,118.48,29.32,-9
AOML_Explorer,Ex0532E,220.142,8082005,3:24:13,25.955,-77.996,412.43,-9,1016.76,1013.86,29.93,30.51,36.149,1.45,88.09,31.83,1016.76,109.3,22.9,1,14.93,403.82,2,-9,9,-9,0.11,3.15,114.8,29.27,-9
AOML_Explorer,Ex0532E,220.144,8082005,3:26:46,25.95,-77.979,412.85,-9,1016.84,1013.85,29.99,30.43,36.163,1.44,87.89,31.83,1016.84,109.1,22.7,359,14.93,402.24,2,-9,9,-9,0.1,3.25,105.33,29.27,-9
AOML_Explorer,Ex0532E,220.145,8082005,3:29:19,25.945,-77.962,413.56,-9,1016.79,1013.85,29.98,30.47,36.14,1.44,87.78,31.83,1016.79,109.6,22.6,355,15.44,403.61,2,-9,9,-9,0.09,4,88.96,29.23,-9
AOML_Explorer,Ex0532E,220.147,8082005,3:31:52,25.939,-77.945,413.75,-9,1016.82,1013.92,29.96,30.41,36.132,1.46,87.72,31.83,1016.82,109.8,22.7,356,14.41,403.23,2,-9,9,-9,0.1,2.91,87.28,29.22,-9
AOML_Explorer,Ex0532E,220.151,8082005,3:36:58,25.928,-77.912,413.17,-9,1016.75,1013.89,29.89,30.59,36.18,1.46,87.54,31.83,1016.75,110.5,22.6,356,14.93,406.39,2,-9,9,-9,0.1,3.45,91.05,29.23,-9
AOML_Explorer,Ex0532E,220.152,8082005,3:39:31,25.922,-77.896,412.99,-9,1016.76,1013.83,30.13,30.57,36.168,1.45,87.7,31.83,1016.76,112.3,22.6,356,14.41,402.23,2,-9,9,-9,0.11,2.98,88.5,29.22,-9
AOML_Explorer,Ex0532E,220.154,8082005,3:42:04,25.916,-77.879,414.32,-9,1016.71,1013.74,30.11,30.59,36.14,1.44,87.49,31.82,1016.71,114.8,22.6,353,15.44,404.1,2,-9,9,-9,0.1,4.24,84.44,29.19,-9
AOML_Explorer,Ex0532E,220.156,8082005,3:44:37,25.91,-77.863,414.76,-9,1016.64,1013.67,30.04,30.68,36.131,1.46,87.54,31.83,1016.64,114.2,22.7,352,14.93,406.79,2,-9,9,-9,0.1,3.86,76.5,29.17,-9
AOML_Explorer,Ex0532E,220.158,8082005,3:47:10,25.903,-77.847,414.51,-9,1016.59,1013.54,30.05,30.64,36.14,1.46,87.42,31.83,1016.59,114.1,22.7,354,14.41,405.79,2,-9,9,-9,0.08,3.13,81.15,29.19,-9
AOML_Explorer,Ex0532E,220.16,8082005,3:49:43,25.896,-77.831,414.23,-9,1016.57,1013.64,30.04,30.65,36.166,1.44,87.53,31.83,1016.57,114.3,22.5,352,14.41,405.86,2,-9,9,-9,0.09,3.48,73.95,29.17,-9
AOML_Explorer,Ex0532E,220.161,8082005,3:52:16,25.89,-77.815,414.17,-9,1016.56,1013.57,30.11,30.75,36.163,1.46,87.5,31.83,1016.56,114.1,22.6,354,13.9,406.12,2,-9,9,-9,0.09,2.74,76.32,29.08,-9
AOML_Explorer,Ex0532E,220.163,8082005,3:54:49,25.883,-77.799,414.27,-9,1016.45,1013.5,30.13,30.81,36.132,1.47,87.52,31.83,1016.45,113.9,22.7,352,14.41,406.74,2,-9,9,-9,0.09,3.49,70.46,29.08,-9
AOML_Explorer,Ex0532E,220.165,8082005,3:57:22,25.878,-77.782,414.59,-9,1016.36,1013.44,30.18,30.8,36.125,1.45,87.43,31.83,1016.36,108.2,22.6,358,14.41,406.14,2,-9,9,-9,0.08,2.91,89.23,29.03,-9
AOML_Explorer,Ex0532E,220.167,8082005,3:59:55,25.873,-77.765,414.94,-9,1016.37,1013.42,30.23,30.71,36.139,1.45,86.99,31.84,1016.37,104.8,22.6,356,13.9,404.49,2,-9,9,-9,0.09,2.53,75.89,29.06,-9
AOML_Explorer,Ex0532E,220.18,8082005,4:19:07,25.842,-77.635,412.37,-9,1016.36,1013.39,30.21,30.75,36.166,1.44,87.73,31.93,1016.36,104.9,22.9,357,13.9,402.8,2,-9,9,-9,0.07,2.29,79.87,28.7,-9
AOML_Explorer,Ex0532E,220.182,8082005,4:21:40,25.838,-77.618,413.8,-9,1016.43,1013.28,30.21,30.79,36.159,1.44,87.51,31.94,1016.43,105.2,23,355,14.41,404.69,2,-9,9,-9,0.08,2.94,73.11,28.67,-9
AOML_Explorer,Ex0532E,220.183,8082005,4:24:13,25.834,-77.601,414.92,-9,1016.46,1013.61,30.21,30.71,36.173,1.44,87.4,31.94,1016.46,104.7,23,357,14.41,404.78,2,-9,9,-9,0.08,2.72,83.8,28.73,-9
AOML_Explorer,Ex0532E,220.185,8082005,4:26:46,25.83,-77.583,415.63,-9,1016.51,1013.42,30.22,30.62,36.182,1.43,87.4,31.95,1016.51,104.7,22.9,351,15.44,404.15,2,-9,9,-9,0.07,4.33,67.07,28.74,-9
AOML_Explorer,Ex0532E,220.187,8082005,4:29:19,25.826,-77.566,416.26,-9,1016.6,1013.5,30.19,30.66,36.136,1.43,87.65,31.95,1016.6,105,22.8,352,14.93,405.61,2,-9,9,-9,0.08,3.79,67.56,28.7,-9
AOML_Explorer,Ex0532E,220.191,8082005,4:34:25,25.817,-77.532,415.69,-9,1016.57,1013.6,30.13,30.73,36.178,1.44,87.26,31.95,1016.57,105.1,22.7,354,14.41,407.02,2,-9,9,-9,0.09,3.16,70.97,28.7,-9
AOML_Explorer,Ex0532E,220.192,8082005,4:36:58,25.813,-77.515,415.57,-9,1016.6,1013.56,30.19,30.81,36.186,1.45,87.32,31.95,1016.6,105,22.7,350,14.41,407.13,2,-9,9,-9,0.08,3.7,56.67,28.67,-9
AOML_Explorer,Ex0532E,220.194,8082005,4:39:31,25.809,-77.498,415.3,-9,1016.6,1013.49,30.19,30.75,36.177,1.44,87.21,31.95,1016.6,104.1,22.7,347,14.41,405.9,2,-9,9,-9,0.08,4.32,45.48,28.66,-9
AOML_Explorer,Ex0532E,220.196,8082005,4:42:04,25.805,-77.481,415.09,-9,1016.58,1013.6,30.23,30.61,36.173,1.44,87.28,31.95,1016.58,104.4,22.7,349,14.41,403.34,2,-9,9,-9,0.08,3.97,51.07,28.67,-9
AOML_Explorer,Ex0532E,220.198,8082005,4:44:37,25.801,-77.463,415.85,-9,1016.62,1013.64,30.17,30.49,36.24,1.44,87.38,31.95,1016.62,104.4,22.6,352,13.9,403.28,2,-9,9,-9,0.09,3.12,57.37,28.71,-9
AOML_Explorer,Ex0532E,220.199,8082005,4:47:10,25.797,-77.446,415.91,-9,1016.62,1013.64,30.08,30.37,36.236,1.43,87.46,31.95,1016.62,103.5,22.6,352,15.44,403.08,2,-9,9,-9,0.09,4.56,65.65,28.8,-9
AOML_Explorer,Ex0532E,220.201,8082005,4:49:43,25.794,-77.429,416,-9,1016.66,1013.64,29.97,30.41,36.199,1.43,87.45,31.95,1016.66,103.2,22.6,353,14.93,405.29,2,-9,9,-9,0.1,3.9,66.03,28.96,-9
AOML_Explorer,Ex0532E,220.203,8082005,4:52:16,25.79,-77.412,415.59,-9,1016.57,1013.63,29.91,30.32,36.254,1.44,87.32,31.95,1016.57,102.9,22.6,352,13.9,404.52,2,-9,9,-9,0.09,3.19,52.86,28.99,-9
AOML_Explorer,Ex0532E,220.205,8082005,4:54:49,25.787,-77.395,414.88,-9,1016.55,1013.5,29.89,30.37,36.254,1.43,87.18,31.95,1016.55,102.6,22.6,353,14.93,404.73,2,-9,9,-9,0.09,3.88,66.01,28.99,-9
AOML_Explorer,Ex0532E,220.207,8082005,4:57:22,25.783,-77.378,414.26,-9,1016.5,1013.53,29.87,30.52,36.265,1.45,87.5,31.95,1016.5,102.8,22.4,352,13.9,406.6,2,-9,9,-9,0.09,3.18,55.92,28.99,-9
AOML_Explorer,Ex0532E,220.208,8082005,4:59:55,25.78,-77.361,414.38,-9,1016.51,1013.54,29.94,30.4,36.25,1.43,87.05,31.94,1016.51,102.2,22.4,350,13.9,403.93,2,-9,9,-9,0.08,3.46,49.42,28.93,-9
AOML_Explorer,Ex0532E,220.222,8082005,5:19:07,25.76,-77.233,415.02,-9,1016.29,1013.3,30.1,30.5,36.212,1.42,87.7,32.02,1016.29,94.4,22,348,13.38,403.47,2,-9,9,-9,0.07,3.28,37.07,28.87,-9
AOML_Explorer,Ex0532E,220.223,8082005,5:21:40,25.758,-77.216,415.54,-9,1016.26,1013.25,30.08,30.4,36.163,1.45,87.83,32.03,1016.26,95.8,22.1,344,13.38,402.81,2,-9,9,-9,0.07,4.15,25.9,28.88,-9
AOML_Explorer,Ex0532E,220.225,8082005,5:24:13,25.757,-77.199,415.59,-9,1016.17,1013.23,29.95,30.22,36.195,1.43,87.59,32.03,1016.17,96,22.4,345,13.38,402.35,2,-9,9,-9,0.07,3.89,26.25,28.88,-9
AOML_Explorer,Ex0532E,220.227,8082005,5:26:46,25.755,-77.182,414.78,-9,1016.13,1013.21,29.84,30.3,36.135,1.43,87.33,32.04,1016.13,95.9,22.6,346,13.9,404.2,2,-9,9,-9,0.08,4.01,32.56,28.81,-9
AOML_Explorer,Ex0532E,220.229,8082005,5:29:19,25.754,-77.164,413.76,-9,1016.1,1013.19,29.76,30.22,36.212,1.43,87.38,32.04,1016.1,96,22.6,346,13.38,403.42,2,-9,9,-9,0.09,3.68,26.55,28.81,-9
AOML_Explorer,Ex0532E,220.23,8082005,5:31:52,25.752,-77.146,412.89,-9,1016.04,1013.13,29.81,30.28,36.201,1.44,87.52,32.04,1016.04,95.9,22.7,353,13.38,402.71,2,-9,9,-9,0.09,2.43,46.12,28.8,-9
AOML_Explorer,Ex0532E,220.232,8082005,5:34:25,25.75,-77.129,412.88,-9,1016.07,1012.97,29.82,30.23,36.224,1.44,87.32,32.04,1016.07,96.3,22.9,345,13.9,401.67,2,-9,9,-9,0.09,4.16,27.68,28.79,-9
AOML_Explorer,Ex0532E,220.234,8082005,5:36:58,25.749,-77.111,413.11,-9,1016.03,1013.02,29.84,30.09,36.258,1.45,86.93,32.04,1016.03,96.4,22.9,344,13.9,399.77,2,-9,9,-9,0.09,4.43,25.73,28.82,-9
AOML_Explorer,Ex0532E,220.236,8082005,5:39:31,25.747,-77.093,413.58,-9,1016.03,1013.1,29.73,30.07,36.26,1.43,87.11,32.04,1016.03,96.4,23.1,347,13.38,401.43,2,-9,9,-9,0.09,3.5,24.26,28.83,-9
AOML_Explorer,Ex0532E,220.238,8082005,5:42:04,25.745,-77.075,415.23,-9,1016.08,1013,29.66,30.05,36.24,1.44,87.28,32.05,1016.08,97.1,23.1,347,13.38,403.92,2,-9,9,-9,0.09,3.6,23.88,28.8,-9
AOML_Explorer,Ex0532E,220.239,8082005,5:44:37,25.743,-77.057,416.53,-9,1015.96,1013.13,29.6,30.11,36.241,1.45,86.94,32.05,1015.96,96.3,23.4,344,13.38,406.87,2,-9,9,-9,0.09,4.08,16.52,28.79,-9
AOML_Explorer,Ex0532E,220.241,8082005,5:47:10,25.741,-77.039,416.62,-9,1016.02,1013.09,29.61,30.05,36.255,1.41,87.48,32.05,1016.02,96.9,23.6,346,12.87,405.95,2,-9,9,-9,0.09,3.5,10.89,28.78,-9
AOML_Explorer,Ex0532E,220.243,8082005,5:49:43,25.74,-77.021,416.56,-9,1015.96,1012.92,29.62,30.12,36.235,1.43,87.4,32.05,1015.96,96,23.5,345,14.41,406.75,2,-9,9,-9,0.08,4.39,29.36,28.74,-9
AOML_Explorer,Ex0532E,220.245,8082005,5:52:16,25.738,-77.002,416.76,-9,1016.12,1013.04,29.61,30.13,36.217,1.44,87.38,32.05,1016.12,95.9,23.5,342,14.93,407.3,2,-9,9,-9,0.08,5.3,28.17,28.78,-9
AOML_Explorer,Ex0532E,220.25,8082005,5:59:55,25.732,-76.948,414.42,-9,1016.19,1013.21,29.85,30.57,36.243,1.44,87.25,32.05,1016.19,98.1,23.1,345,13.9,407.62,2,-9,9,-9,0.09,4.1,29.12,28.79,-9
AOML_Explorer,Ex0532E,220.263,8082005,6:19:07,25.715,-76.814,413.12,-9,1016.17,1013.15,29.9,30.22,36.262,1.44,87.8,32.14,1016.17,98.2,23.1,336,13.9,400.64,2,-9,9,-9,0.07,5.95,14.81,28.68,-9
AOML_Explorer,Ex0532E,220.265,8082005,6:21:40,25.712,-76.796,413.24,-9,1016.21,1013.06,29.8,30.04,36.242,1.43,87.41,32.14,1016.21,98.2,23.1,337,14.41,399.8,2,-9,9,-9,0.08,6.01,20.44,28.71,-9
AOML_Explorer,Ex0532E,220.267,8082005,6:24:13,25.71,-76.779,413.33,-9,1016.2,1013.03,29.68,29.88,36.268,1.43,87.46,32.15,1016.2,98.2,23,337,13.9,399.48,2,-9,9,-9,0.11,5.76,16.54,28.74,-9
AOML_Explorer,Ex0532E,220.269,8082005,6:26:46,25.708,-76.761,413.38,-9,1016.09,1013.2,29.59,29.79,36.22,1.45,87.39,32.15,1016.09,98.3,23.1,339,13.38,399.67,2,-9,9,-9,0.09,5.12,13.71,28.73,-9
AOML_Explorer,Ex0532E,220.27,8082005,6:29:19,25.705,-76.743,413.74,-9,1016.22,1013.05,29.44,29.86,36.212,1.44,87.42,32.15,1016.22,98,23.4,343,14.41,403.18,2,-9,9,-9,0.09,4.73,28.66,28.71,-9
AOML_Explorer,Ex0532E,220.272,8082005,6:31:52,25.703,-76.724,413.28,-9,1016.03,1012.92,29.4,29.8,36.22,1.46,87.04,32.16,1016.03,96.8,23.6,345,14.41,402.49,2,-9,9,-9,0.09,4.14,32.96,28.66,-9
AOML_Explorer,Ex0532E,220.276,8082005,6:36:58,25.7,-76.688,412.61,-9,1015.98,1013.11,29.67,30.44,36.235,1.43,86.97,32.16,1015.98,95.9,23.1,343,13.38,406.72,2,-9,9,-9,0.07,3.9,19.95,28.57,-9
AOML_Explorer,Ex0532E,220.277,8082005,6:39:31,25.698,-76.67,412.68,-9,1015.96,1012.92,29.92,30.34,36.243,1.44,87,32.16,1015.96,95.8,23,342,14.41,401.45,2,-9,9,-9,0.08,4.71,29.83,28.54,-9
AOML_Explorer,Ex0532E,220.279,8082005,6:42:04,25.696,-76.652,412.95,-9,1015.97,1012.97,29.88,30.39,36.234,1.42,87.32,32.16,1015.97,96,22.9,338,13.38,403.18,2,-9,9,-9,0.08,4.97,13.57,28.53,-9
AOML_Explorer,Ex0532E,220.281,8082005,6:44:37,25.695,-76.634,412.54,-9,1015.9,1012.89,29.85,30.41,36.212,1.43,87.3,32.16,1015.9,96.2,22.8,337,13.38,403.31,2,-9,9,-9,0.08,5.2,12.92,28.5,-9
AOML_Explorer,Ex0532E,220.283,8082005,6:47:10,25.693,-76.617,412.2,-9,1015.88,1012.97,29.87,30.41,36.228,1.43,87.18,32.16,1015.88,96.4,22.7,341,12.87,402.72,2,-9,9,-9,0.08,4.19,13.15,28.45,-9
AOML_Explorer,Ex0532E,220.285,8082005,6:49:43,25.691,-76.599,411.76,-9,1015.8,1012.78,29.89,30.38,36.243,1.44,87.1,32.16,1015.8,96.6,22.7,339,13.38,401.63,2,-9,9,-9,0.08,4.92,15.79,28.43,-9
AOML_Explorer,Ex0532E,220.286,8082005,6:52:16,25.689,-76.582,412.04,-9,1015.73,1012.73,29.89,30.43,36.218,1.45,87.3,32.15,1015.73,96.8,22.7,332,13.38,402.45,2,-9,9,-9,0.08,6.34,7.6,28.4,-9
AOML_Explorer,Ex0532E,220.288,8082005,6:54:49,25.687,-76.564,412.2,-9,1015.76,1012.73,29.88,30.46,36.213,1.42,87.03,32.15,1015.76,96.8,22.6,332,13.9,403.28,2,-9,9,-9,0.08,6.6,12.02,28.37,-9
AOML_Explorer,Ex0532E,220.29,8082005,6:57:22,25.685,-76.546,412.34,-9,1015.68,1012.63,29.89,30.49,36.239,1.41,86.46,32.15,1015.68,96.9,22.6,330,13.38,403.66,2,-9,9,-9,0.08,6.8,6.45,28.38,-9
AOML_Explorer,Ex0532E,220.292,8082005,6:59:55,25.683,-76.529,412.58,-9,1015.58,1012.47,29.94,30.43,36.249,1.46,87.11,32.15,1015.58,96.9,22.5,323,13.38,402.23,2,-9,9,-9,0.09,8.25,0.05,28.38,-9
AOML_Explorer,Ex0532E,220.305,8082005,7:19:07,25.67,-76.398,412.88,-9,1015.34,1012.45,29.71,30.26,36.264,1.44,87.58,32.23,1015.34,100.3,22.4,331,11.32,403.55,2,-9,9,-9,0.07,5.53,354.23,28.08,-9
AOML_Explorer,Ex0532E,220.307,8082005,7:21:40,25.666,-76.381,413.61,-9,1015.33,1012.55,29.75,30.27,36.252,1.41,87.29,32.23,1015.33,105,22.6,338,11.32,403.72,2,-9,9,-9,0.07,4.12,0.36,27.99,-9
AOML_Explorer,Ex0532E,220.308,8082005,7:24:13,25.661,-76.364,415.29,-9,1015.41,1012.56,29.75,30.28,36.251,1.44,87.25,32.23,1015.41,111,22.3,338,11.84,405.52,2,-9,9,-9,0.07,4.34,14.78,27.94,-9
AOML_Explorer,Ex0532E,220.31,8082005,7:26:46,25.655,-76.348,416.28,-9,1015.36,1012.53,29.77,30.28,36.243,1.45,87.27,32.23,1015.36,115.8,22.4,329,11.32,406.17,2,-9,9,-9,0.07,5.94,8.53,27.97,-9
AOML_Explorer,Ex0532E,220.312,8082005,7:29:19,25.647,-76.332,416.46,-9,1015.49,1012.63,29.78,30.26,36.244,1.43,87.21,32.23,1015.49,120.1,22.7,332,10.81,406,2,-9,9,-9,0.07,5.21,7.38,27.99,-9
AOML_Explorer,Ex0532E,220.314,8082005,7:31:52,25.639,-76.317,416.01,-9,1015.48,1012.62,29.78,30.25,36.255,1.42,87.15,32.23,1015.48,123.1,23,350,12.35,405.49,2,-9,9,-9,0.07,1.76,46.02,28.03,-9
AOML_Explorer,Ex0532E,220.316,8082005,7:34:25,25.63,-76.302,415.63,-9,1015.5,1012.68,29.77,30.19,36.27,1.43,86.62,32.23,1015.5,121.8,23.4,351,12.35,404.38,2,-9,9,-9,0.07,1.3,42.51,27.96,-9
AOML_Explorer,Ex0532E,220.317,8082005,7:36:58,25.621,-76.287,415.86,-9,1015.43,1012.74,29.76,30.12,36.267,1.44,87.16,32.23,1015.43,124.9,22.5,352,12.87,403.73,2,-9,9,-9,0.07,2.07,69.25,27.92,-9
AOML_Explorer,Ex0532E,220.319,8082005,7:39:31,25.612,-76.275,415.98,-9,1015.67,1012.77,29.69,30.09,36.277,1.41,87.23,32.22,1015.67,125.5,22.4,357,11.84,404.65,2,-9,9,-9,0.07,0.64,63.05,28.23,-9
AOML_Explorer,Ex0532E,220.321,8082005,7:42:04,25.602,-76.261,415.91,-9,1015.69,1012.93,29.64,30.08,36.284,1.43,87.25,32.22,1015.69,126,22.4,0,12.35,405.12,2,-9,9,-9,0.07,0.82,126.75,28.25,-9
AOML_Explorer,Ex0532E,220.323,8082005,7:44:37,25.593,-76.246,415.87,-9,1015.71,1012.85,29.63,30.07,36.275,1.43,87.32,32.22,1015.71,126,22.5,0,11.84,405.12,2,-9,9,-9,0.07,0.26,129.22,28.25,-9
AOML_Explorer,Ex0532E,220.324,8082005,7:47:10,25.584,-76.232,415.95,-9,1015.76,1012.95,29.61,30.04,36.272,1.42,87.5,32.22,1015.76,126.5,22.5,2,12.87,405.13,2,-9,9,-9,0.07,1.33,141.41,28.26,-9
AOML_Explorer,Ex0532E,220.326,8082005,7:49:43,25.574,-76.218,415.91,-9,1015.79,1012.93,29.59,30.02,36.269,1.41,86.92,32.21,1015.79,126.7,22.6,3,12.35,405.08,2,-9,9,-9,0.09,0.86,160.97,28.31,-9
AOML_Explorer,Ex0532E,220.328,8082005,7:52:16,25.565,-76.204,415.65,-9,1015.68,1012.98,29.57,29.98,36.266,1.43,87.06,32.21,1015.68,125.6,22.6,2,12.35,404.51,2,-9,9,-9,0.08,0.78,148.13,28.43,-9
AOML_Explorer,Ex0532E,220.33,8082005,7:54:49,25.556,-76.189,415.59,-9,1015.53,1012.98,29.55,29.95,36.26,1.44,87.25,32.21,1015.53,125.6,22.6,8,12.35,404.2,2,-9,9,-9,0.08,1.61,192.56,28.44,-9
AOML_Explorer,Ex0532E,220.332,8082005,7:57:22,25.546,-76.175,415.21,-9,1015.74,1012.92,29.52,29.9,36.263,1.43,87.14,32.2,1015.74,125.6,22.7,1,13.38,403.81,2,-9,9,-9,0.08,1.71,119.42,28.39,-9
AOML_Explorer,Ex0532E,220.333,8082005,7:59:55,25.537,-76.16,414.79,-9,1015.77,1012.81,29.48,29.94,36.243,1.44,87.28,32.2,1015.77,125.6,22.8,5,12.87,404.52,2,-9,9,-9,0.08,1.33,158.72,28.44,-9
AOML_Explorer,Ex0532E,220.347,8082005,8:19:07,25.467,-76.05,413.08,-9,1015.46,1012.54,29.56,30.13,36.251,1.41,87.22,32.25,1015.46,124.8,22.8,2,14.41,404.22,2,-9,9,-9,0.07,2.68,120.77,28.04,-9
AOML_Explorer,Ex0532E,220.348,8082005,8:21:40,25.458,-76.036,413.67,-9,1015.39,1012.52,29.6,30.14,36.233,1.44,87.26,32.25,1015.39,125.1,22.8,2,13.9,404.37,2,-9,9,-9,0.07,2.18,117.29,28.05,-9
AOML_Explorer,Ex0532E,220.35,8082005,8:24:13,25.448,-76.021,414.05,-9,1015.45,1012.5,29.62,30.14,36.244,1.44,87.26,32.25,1015.45,125.2,22.9,1,13.9,404.3,2,-9,9,-9,0.07,2.15,113.48,27.94,-9